Location: Newark
(54.0500°N, 12.8333°E)
Time: 14:04:44
(UTC+00:00)

Vanguard 2 Rocket - Visible Passes

Search period start: 19 January 2021 00:00
Search period end: 29 January 2021 00:00
Orbit: 554 x 3325 km, 32.9° (Epoch: 18 January)

Date Brightness Start Highest point End Pass type
(mag) Time Alt. Az. Time Alt. Az. Time Alt. Az.
19 Jan 9.5 16:26:55 10° S 16:27:29 10° S 16:28:03 10° S visible
20 Jan 9.2 17:39:25 10° SSW 17:40:06 10° SSW 17:40:46 10° S visible
21 Jan 9.4 16:37:24 10° SSW 16:40:52 13° S 16:43:46 10° SSE visible
22 Jan 9.3 17:51:57 10° SSW 17:53:22 11° SSW 17:54:40 10° S visible
23 Jan 9.4 16:49:42 10° SW 16:54:11 15° SSW 16:57:44 10° SSE visible
25 Jan 9.5 17:02:36 10° SW 17:07:22 15° SSW 17:11:08 10° SSE visible
27 Jan 9.7 17:16:01 10° SW 17:20:26 14° SSW 17:24:00 10° S visible
28 Jan 9.7 16:13:35 10° WSW 16:21:09 19° SSW 16:26:37 10° SSE visible
